ビショア彗星

297P/Beshore (2021)

English version
Home page
Updated on November 3, 2020

---------------------------------------------------------------------

・ プロフィール

・ 軌道要素

Epoch 2021 Jan. 26.0 TT = JDT 2459240.5
T 2021 Jan. 22.86481 TT                                 MPCW
q   2.3434111            (2000.0)            P               Q
n   0.15433767     Peri.  132.50064     -0.62880522     +0.75698658
a   3.4420836      Node    97.65937     -0.75559679     -0.54093661
e   0.3191882      Incl.   10.32865     -0.18351424     -0.36655001
P   6.39
From 498 observations 2001 Mar. 20-2014 June 18, mean residual 0".5.

・ 光度変化

        m1 = 12.5 + 5 logΔ + 15 log r

---------------------------------------------------------------------

軌道要素はM.P.E.C. 2017-A77に掲載されたものです。
光度グラフはComet for Windowsで作成したものです。

---------------------------------------------------------------------

Copyright(C) Seiichi Yoshida (comet@aerith.net). All rights reserved.